Tracking 19847 objects as of 16-Sep-2019
HD Live streaming from Space Station
objects crossing your sky now

FENGYUN 1C DEB

Track FENGYUN 1C DEB now!
10-day predictions


NORAD ID: 32198
Int'l Code: 1999-025CUU
Perigee: 837.1 km
Apogee: 987.0 km
Inclination: 98.4 °
Period: 103.1 minutes
Semi major axis: 7283 km
RCS: 0.0075 m2 (small)
Launch date: May 10, 1999
Source: People's Republic of China (PRC)
Launch site: Taiyaun Space Center, China (TSC)

Note: This is SATELLITE DEBRIS
aabbcc
Your satellite tracking list
Your tracking list is empty




NASA's NSSDC Master Catalog

Two Line Element Set (TLE):
1 32198U 99025CUU 19248.66382107  .00000573  00000-0  42122-3 0  9994
2 32198  98.3508 201.5806 0102878 274.0331  84.9079 13.96799242624726
Source of the keplerian elements: AFSPC